Location: Buckeye Ditch
(40.9104°N, 122.9517°W)
Time: 12:16:05
(UTC+00:00)

Explorer 7 - Pass Details

Date: 26 May 2025
Orbit: 445 x 571 km, 50.3° (Epoch: 22 June)

Event Time Altitude Azimuth Distance (km) Brightness Sun altitude
Rises 09:52:53 0° 277° (W) 2,474 - -23.4°
Reaches altitude 10° 09:55:18 10° 293° (WNW) 1,620 - -23.1°
Exits shadow 09:56:22 16° 306° (NW) 1,314 8.8 -23.1°
Maximum altitude 09:58:17 23° 348° (NNW) 1,055 8.8 -22.9°
Drops below altitude 10° 10:01:22 10° 42° (NE) 1,678 10.3 -22.6°
Sets 10:03:55 0° 57° (ENE) 2,589 11.3 -22.4°
